UAL1022 KSAN-KLAS

Flight info

Callsign UAL1022
Flight time N/A
Altitude 29000
Route PADRZ2 CHKNN SEBBY YELAH MISEN RNDRZ4
Aircraft B38M/M-SDE1FGHILORVWXY/HB1

Departure

Time 2026-04-23 00:37
Airport San Diego International Airport (KSAN)

Arrival

Time N/A
Airport Harry Reid International Airport (KLAS)
Time Latitude Longitude Altitude Speed Heading
2026-04-23 00:10 32.73304 -117.20067 28 ft 0 kts 274°
2026-04-23 00:27 32.73303 -117.20064 28 ft 2 kts 273°
2026-04-23 00:27 32.73304 -117.20041 28 ft 4 kts 268°
2026-04-23 00:27 32.73305 -117.20010 28 ft 4 kts 269°
2026-04-23 00:28 32.73302 -117.19984 28 ft 4 kts 321°
2026-04-23 00:28 32.73293 -117.19979 28 ft 1 kts 350°
2026-04-23 00:28 32.73292 -117.19979 28 ft 0 kts 350°
2026-04-23 00:32 32.73293 -117.19979 28 ft 1 kts 350°
2026-04-23 00:32 32.73319 -117.19984 29 ft 8 kts 356°
2026-04-23 00:32 32.73407 -117.19967 30 ft 15 kts 12°
2026-04-23 00:32 32.73475 -117.19940 29 ft 8 kts 47°
2026-04-23 00:33 32.73472 -117.19872 30 ft 9 kts 105°
2026-04-23 00:33 32.73449 -117.19778 30 ft 15 kts 107°
2026-04-23 00:33 32.73411 -117.19621 29 ft 24 kts 106°
2026-04-23 00:33 32.73362 -117.19418 28 ft 27 kts 106°
2026-04-23 00:34 32.73310 -117.19203 29 ft 20 kts 106°
2026-04-23 00:34 32.73271 -117.19042 28 ft 21 kts 108°
2026-04-23 00:34 32.73228 -117.18864 28 ft 24 kts 105°
2026-04-23 00:34 32.73181 -117.18670 30 ft 26 kts 106°
2026-04-23 00:35 32.73128 -117.18451 28 ft 29 kts 107°
2026-04-23 00:35 32.73076 -117.18239 26 ft 21 kts 106°
2026-04-23 00:35 32.73034 -117.18066 24 ft 24 kts 107°
2026-04-23 00:35 32.72988 -117.17876 22 ft 20 kts 106°
2026-04-23 00:36 32.72955 -117.17743 23 ft 14 kts 105°
2026-04-23 00:36 32.72957 -117.17656 23 ft 11 kts 72°
2026-04-23 00:36 32.72972 -117.17569 27 ft 11 kts 94°
2026-04-23 00:36 32.73013 -117.17543 27 ft 3 kts 304°
2026-04-23 00:37 32.73017 -117.17568 29 ft 10 kts 283°
2026-04-23 00:37 32.73106 -117.17939 24 ft 86 kts 286°
2026-04-23 00:37 32.73353 -117.18857 48 ft 145 kts 292°
2026-04-23 00:37 32.73656 -117.20064 661 ft 156 kts 283°
2026-04-23 00:38 32.73897 -117.21293 1612 ft 149 kts 283°
2026-04-23 00:38 32.74178 -117.22539 2243 ft 165 kts 293°
2026-04-23 00:38 32.74801 -117.23746 2848 ft 180 kts 302°
2026-04-23 00:38 32.75568 -117.25024 3484 ft 199 kts 305°
2026-04-23 00:39 32.76432 -117.26394 4134 ft 215 kts 306°
2026-04-23 00:39 32.77364 -117.27865 4849 ft 230 kts 304°
2026-04-23 00:39 32.78317 -117.29438 5655 ft 240 kts 304°
2026-04-23 00:39 32.79290 -117.31068 6571 ft 242 kts 303°
2026-04-23 00:40 32.80304 -117.32711 7363 ft 252 kts 304°
2026-04-23 00:40 32.81040 -117.33846 7826 ft 260 kts 305°
2026-04-23 00:40 32.82161 -117.35566 8677 ft 266 kts 305°
2026-04-23 00:40 32.83319 -117.37315 9535 ft 270 kts 304°
2026-04-23 00:41 32.84472 -117.39089 10473 ft 271 kts 303°
2026-04-23 00:41 32.85643 -117.40872 11322 ft 275 kts 305°
2026-04-23 00:41 32.86824 -117.42622 12269 ft 276 kts 304°
2026-04-23 00:41 32.88011 -117.44418 13243 ft 277 kts 304°
2026-04-23 00:42 32.89211 -117.46253 14233 ft 278 kts 303°
2026-04-23 00:42 32.90385 -117.48049 15088 ft 281 kts 306°
2026-04-23 00:42 32.91595 -117.49897 15955 ft 284 kts 305°
2026-04-23 00:42 32.92810 -117.51769 16797 ft 288 kts 304°
2026-04-23 00:43 32.94054 -117.53699 17370 ft 302 kts 304°
2026-04-23 00:43 32.95370 -117.55750 17686 ft 322 kts 304°
2026-04-23 00:43 32.96768 -117.57931 18025 ft 339 kts 304°
2026-04-23 00:43 32.98224 -117.60201 18497 ft 350 kts 304°
2026-04-23 00:44 32.99704 -117.62510 19210 ft 351 kts 304°
2026-04-23 00:44 33.01194 -117.64836 19866 ft 355 kts 304°
2026-04-23 00:44 33.02698 -117.67187 20529 ft 358 kts 303°
2026-04-23 00:44 33.04220 -117.69568 20988 ft 368 kts 303°
2026-04-23 00:45 33.05816 -117.72045 21056 ft 387 kts 307°
2026-04-23 00:45 33.07951 -117.74152 21243 ft 413 kts 325°
2026-04-23 00:45 33.10640 -117.75553 21574 ft 431 kts 337°
2026-04-23 00:45 33.13607 -117.76256 22279 ft 441 kts 349°
2026-04-23 00:46 33.16698 -117.76264 22940 ft 446 kts 354°
2026-04-23 00:46 33.19790 -117.76328 23605 ft 444 kts 353°
2026-04-23 00:46 33.22878 -117.76395 24231 ft 443 kts 353°
2026-04-23 00:46 33.25666 -117.76440 24816 ft 441 kts 352°
2026-04-23 00:47 33.28707 -117.76483 25470 ft 440 kts 352°
2026-04-23 00:47 33.31804 -117.76535 25583 ft 452 kts 352°
2026-04-23 00:47 33.35001 -117.76601 25624 ft 465 kts 352°
2026-04-23 00:47 33.38102 -117.76657 25983 ft 468 kts 352°
2026-04-23 00:48 33.41355 -117.76701 26593 ft 466 kts 352°
2026-04-23 00:48 33.44587 -117.76743 27206 ft 464 kts 352°
2026-04-23 00:48 33.47805 -117.76784 27818 ft 462 kts 352°
2026-04-23 00:48 33.51013 -117.76828 28440 ft 460 kts 352°
2026-04-23 00:49 33.54214 -117.76871 29006 ft 460 kts 352°
2026-04-23 00:49 33.57411 -117.76916 29140 ft 458 kts 352°
2026-04-23 00:49 33.60590 -117.76961 29130 ft 456 kts 352°
2026-04-23 00:50 33.66924 -117.77057 29123 ft 455 kts 352°
2026-04-23 00:50 33.73296 -117.77159 29116 ft 461 kts 352°
2026-04-23 00:51 33.79725 -117.77259 29116 ft 462 kts 352°
2026-04-23 00:51 33.86103 -117.77355 29115 ft 462 kts 352°
2026-04-23 00:52 33.92522 -117.77450 29101 ft 461 kts 352°
2026-04-23 00:52 33.98939 -117.77547 29112 ft 461 kts 352°
2026-04-23 00:53 34.05380 -117.77296 29103 ft 474 kts
2026-04-23 00:53 34.08546 -117.76018 29109 ft 489 kts 19°
2026-04-23 00:53 34.11434 -117.73761 29109 ft 503 kts 35°
2026-04-23 00:53 34.13839 -117.70632 29100 ft 513 kts 47°
2026-04-23 00:54 34.16084 -117.67290 29087 ft 512 kts 45°
2026-04-23 00:54 34.20626 -117.60665 29090 ft 512 kts 45°
2026-04-23 00:55 34.25158 -117.54018 29084 ft 511 kts 45°
2026-04-23 00:55 34.29689 -117.47365 29072 ft 513 kts 46°
2026-04-23 00:56 34.34208 -117.40713 29060 ft 512 kts 46°
2026-04-23 00:56 34.38729 -117.34049 29073 ft 512 kts 46°
2026-04-23 00:57 34.43248 -117.27373 29077 ft 513 kts 46°
2026-04-23 00:57 34.47768 -117.20684 29074 ft 513 kts 46°
2026-04-23 00:58 34.52288 -117.13983 29067 ft 514 kts 46°
2026-04-23 00:58 34.56810 -117.07265 29050 ft 514 kts 46°
2026-04-23 00:59 34.61334 -117.00531 29009 ft 515 kts 46°
2026-04-23 00:59 34.65855 -116.93790 29002 ft 515 kts 46°
2026-04-23 01:00 34.70349 -116.87075 28995 ft 516 kts 46°
2026-04-23 01:00 34.74876 -116.80298 28996 ft 517 kts 46°
2026-04-23 01:01 34.79408 -116.73503 29004 ft 518 kts 46°
2026-04-23 01:01 34.83938 -116.66699 29001 ft 518 kts 46°
2026-04-23 01:01 34.86404 -116.63567 28990 ft 507 kts 33°
2026-04-23 01:02 34.89164 -116.60895 28997 ft 508 kts 32°
2026-04-23 01:02 34.94674 -116.55510 28989 ft 507 kts 32°
2026-04-23 01:03 35.00203 -116.50144 28990 ft 509 kts 32°
2026-04-23 01:03 35.05738 -116.44764 28982 ft 509 kts 32°
2026-04-23 01:04 35.11132 -116.39239 28606 ft 511 kts 40°
2026-04-23 01:04 35.13571 -116.36074 27794 ft 511 kts 40°
2026-04-23 01:04 35.18420 -116.29810 26305 ft 506 kts 40°
2026-04-23 01:05 35.20837 -116.26681 25513 ft 505 kts 40°
2026-04-23 01:05 35.23214 -116.23511 24688 ft 507 kts 42°
2026-04-23 01:05 35.25561 -116.20300 23942 ft 505 kts 42°
2026-04-23 01:05 35.27902 -116.17112 23187 ft 502 kts 42°
2026-04-23 01:06 35.30230 -116.13942 22346 ft 499 kts 43°
2026-04-23 01:06 35.32536 -116.10790 21556 ft 496 kts 43°
2026-04-23 01:06 35.34818 -116.07653 20882 ft 490 kts 44°
2026-04-23 01:06 35.37057 -116.04575 20227 ft 477 kts 44°
2026-04-23 01:07 35.39188 -116.01641 19547 ft 464 kts 44°
2026-04-23 01:07 35.41317 -115.98712 18858 ft 453 kts 44°
2026-04-23 01:07 35.43395 -115.95901 18177 ft 450 kts 44°
2026-04-23 01:07 35.45471 -115.93095 17831 ft 436 kts 44°
2026-04-23 01:08 35.47431 -115.90356 17776 ft 420 kts 45°
2026-04-23 01:08 35.49322 -115.87662 17343 ft 415 kts 45°
2026-04-23 01:08 35.51222 -115.84990 16712 ft 416 kts 45°
2026-04-23 01:08 35.53092 -115.82340 16523 ft 405 kts 46°
2026-04-23 01:09 35.54898 -115.79731 16159 ft 399 kts 46°
2026-04-23 01:09 35.56713 -115.77168 15789 ft 394 kts 45°
2026-04-23 01:09 35.58504 -115.74693 15688 ft 380 kts 44°
2026-04-23 01:09 35.60248 -115.72302 15454 ft 373 kts 44°
2026-04-23 01:10 35.61989 -115.69975 15195 ft 366 kts 43°
2026-04-23 01:10 35.63660 -115.67813 15779 ft 327 kts 41°
2026-04-23 01:10 35.65172 -115.65874 15912 ft 312 kts 41°
2026-04-23 01:10 35.66540 -115.64119 15080 ft 332 kts 41°